星链-34275 (STARLINK-34275)

导读 | 豆包AI

STARLINK-34275是美国太空探索技术公司(SpaceX)于2025年6月17日发射的星链系列低轨通信卫星,属于Starlink全球卫星互联网星座组网计划的一部分。该卫星运行在约550公里近地轨道,配备相控阵天线与激光互联设备,可提供低时延高速宽带服务,支持手机直连、远程联网等应用,助力星链实现全球网络覆盖,进一步强化太空通信布局。

Basic Information
目录编号:
64413
目录名称:
STARLINK-34275
国际标识:
2025-129B
轨道中心:
EARTH
卫星名称:
星链-34275
卫星全名:
星链-34275 (STARLINK-34275)
卫星状态:
在轨 (已飞行316 天)
发射日期:
2025-06-17 UTC
国别 :
美国 (US)
星等 :
--
Orbit Information
数据来源 国际轨道数据 AOE轨道数据
星历时间 2026-04-29T08:09:54+0800
17小时前
查看轨道信息
2026-04-28T16:00:00+0800
1天前
查看轨道信息
半长轴 6950.177km 6950.188km
偏心率 0.0002643 0.0002754
轨道倾角 70.000° 70.000°
近地点辐角 269.171° 270.959°
升交点赤经 307.617° 309.314°
平近点角 90.914° 57.114°
近地点 570.203km 570.136km
远地点 573.877km 573.966km
周期 96.107分钟 96.107分钟
每日圈数 14.983353 14.983316
Detailed Information
固有亮度:
5
最大亮度:
2.5
卫星平台:
Starlink V1.0
覆盖范围:
全球
运营商:
太空探索技术公司
运营商所在国:
美国
制造商(研发单位):
太空探索技术公司
制造商所在国:
美国
使用方式:
暂无
Satellite Introduction
Starlink 计划是 SpaceX 推出的全球卫星互联网项目,通过发射低轨道卫星,为全球尤其是偏远地区提供高速、低延迟的互联网服务。自 2019 年起,Starlink 已部署数千颗卫星,旨在缩小全球数字鸿沟,推动互联网普及。该项目还为军事、航空等行业提供通信支持,带来广泛经济效益。
2D Orbit Map
3D Orbit Map
Orbit Altitude Analysis Chart
Orbit Inclination Analysis Chart
Orbit Comprehensive Analysis Chart
View Comprehensive Chart